Location: *
(31.2983°S, 151.4094°E)
Time: 02:10:55
(UTC+00:00)

Envisat - Visible Passes

Search period start: 19 September 2020 00:00
Search period end: 29 September 2020 00:00
Orbit: 764 x 766 km, 98.1° (Epoch: 18 September)

Date Brightness Start Highest point End Pass type
(mag) Time Alt. Az. Time Alt. Az. Time Alt. Az.
19 Sep 3.5 08:06:51 10° S 08:11:58 70° WSW 08:17:02 10° NNW visible
19 Sep 3.1 19:15:47 10° NNE 19:20:53 89° E 19:26:03 10° SSW visible
20 Sep 6.0 09:10:42 10° SSW 09:13:44 16° WSW 09:16:46 10° WNW visible
20 Sep 4.7 18:39:36 10° NE 18:44:14 36° ESE 18:48:55 10° S visible
21 Sep 4.7 08:32:35 10° S 08:37:17 37° WSW 08:41:56 10° NW visible
21 Sep 6.1 18:04:49 10° ENE 18:07:47 16° ESE 18:10:46 10° SSE visible
22 Sep 3.5 19:04:30 10° NNE 19:09:33 69° ESE 19:14:40 10° S visible
23 Sep 5.8 08:58:47 10° SSW 09:02:31 21° WSW 09:06:13 10° WNW visible
23 Sep 5.2 18:28:39 10° NE 18:32:58 28° ESE 18:37:18 10° SSE visible
24 Sep 4.2 08:21:04 10° S 08:25:59 48° WSW 08:30:52 10° NNW visible
24 Sep 6.3 17:54:41 10° E 17:56:35 12° ESE 17:58:28 10° SE visible
25 Sep 6.4 09:26:16 10° SW 09:27:38 11° WSW 09:28:59 10° W visible
25 Sep 4.0 18:53:18 10° NNE 18:58:14 52° ESE 19:03:13 10° S visible
26 Sep 5.4 08:47:01 10° SSW 08:51:15 26° WSW 08:55:26 10° NW visible
26 Sep 5.7 18:17:50 10° ENE 18:21:42 22° ESE 18:25:36 10° SSE visible
27 Sep 3.7 08:09:35 10° S 08:14:40 63° WSW 08:19:42 10° NNW visible
28 Sep 6.2 09:13:41 10° SW 09:16:25 15° WSW 09:19:07 10° W visible
28 Sep 4.6 18:42:12 10° NE 18:46:56 40° ESE 18:51:43 10° S visible
